Location: Rottenacker
(48.2350°N, 9.6886°E)
Time: 18:23:59
(UTC+02:00)

ISS - Pass Details

Date: 10 January 2018
Orbit: 401 x 409 km, 51.6° (Epoch: 22 August)

Event Time Altitude Azimuth Distance (km) Brightness Sun altitude
Exits shadow 05:05:26 15° 76° (ENE) 1,229 -0.7 -29.9°
Drops below altitude 10° 05:06:10 10° 80° (E) 1,512 0.0 -29.8°
Sets 05:08:20 0° 87° (E) 2,380 1.3 -29.4°
